Find Beidou DW 43

NORAD ID: 43707 Int'l Des: 2018-093 Owner: CNSA Country: CN Constellation: BeiDou operational
MEOCIRCULAR

当前视图

正在加载3D地球...

About Beidou DW 43

Beidou DW 43 (NORAD 43707) is a BeiDou constellation satellite launched Nov 18, 2018 by CNSA of CN. It operates in MEO, CIRCULAR orbit with a mass of 1014.00 kg.

关于 Beidou DW 43

正在加载描述...

即将过境

Passes for default location (London). Set your location on the main map for personalized predictions.

高度历史

Loading altitude history...

两行轨道根数

1 43707U 18093B 26166.02598447 .00000089 00000-0 00000+0 0 9998
2 43707 54.1697 182.3617 0007908 320.4950 39.4955 1.86226530 51497
Epoch: Jun 15, 2026 • Age: 34 hours

当前状态

高度 21541.8 km
速度 3.78 km/s
星下点 -36.20°S, 28.26°W
发射日期 Nov 18, 2018
运行时间 7.5 years
类型 navigation

发射组

Unknown Vehicle • BeiDou Launch 35 • 2 satellites

技术详情

分类 Payload
质量 1014.00 kg
干质量 850.00 kg
总质量 1014.00 kg
长度 2.20 m
直径 1.70 m
跨度 10.00 m
形状 Box + 2 Pan
制造商 CAST
平台类型 BD-3M/SAR
阶段状态 In Orbit
所有者/国家 CNSA/CN

Most Searched